Index of /20260412/WXO-DD/model_gdps/15km/00/093
Name Last modified Size Description
Parent Directory -
20260412T00Z_MSC_GDPS_AbsoluteVorticity_IsbL-0200_LatLon0.15_PT093H.grib2 2026-04-12 04:45 1.2M
20260412T00Z_MSC_GDPS_AbsoluteVorticity_IsbL-0250_LatLon0.15_PT093H.grib2 2026-04-12 04:45 1.3M
20260412T00Z_MSC_GDPS_AbsoluteVorticity_IsbL-0500_LatLon0.15_PT093H.grib2 2026-04-12 04:45 1.2M
20260412T00Z_MSC_GDPS_AbsoluteVorticity_IsbL-0700_LatLon0.15_PT093H.grib2 2026-04-12 04:45 1.3M
20260412T00Z_MSC_GDPS_AbsoluteVorticity_IsbL-0850_LatLon0.15_PT093H.grib2 2026-04-12 04:45 1.6M
20260412T00Z_MSC_GDPS_AirTemp_AGL-120m_LatLon0.15_PT093H.grib2 2026-04-12 04:45 919K
20260412T00Z_MSC_GDPS_AirTemp_AGL-2m_LatLon0.15_PT093H.grib2 2026-04-12 04:45 1.0M
20260412T00Z_MSC_GDPS_AirTemp_AGL-40m_LatLon0.15_PT093H.grib2 2026-04-12 04:45 942K
20260412T00Z_MSC_GDPS_AirTemp_AGL-80m_LatLon0.15_PT093H.grib2 2026-04-12 04:45 929K
20260412T00Z_MSC_GDPS_AirTemp_IsbL-0001_LatLon0.15_PT093H.grib2 2026-04-12 04:45 700K
20260412T00Z_MSC_GDPS_AirTemp_IsbL-0005_LatLon0.15_PT093H.grib2 2026-04-12 04:45 679K
20260412T00Z_MSC_GDPS_AirTemp_IsbL-0010_LatLon0.15_PT093H.grib2 2026-04-12 04:45 755K
20260412T00Z_MSC_GDPS_AirTemp_IsbL-0020_LatLon0.15_PT093H.grib2 2026-04-12 04:45 700K
20260412T00Z_MSC_GDPS_AirTemp_IsbL-0030_LatLon0.15_PT093H.grib2 2026-04-12 04:45 751K
20260412T00Z_MSC_GDPS_AirTemp_IsbL-0050_LatLon0.15_PT093H.grib2 2026-04-12 04:45 816K
20260412T00Z_MSC_GDPS_AirTemp_IsbL-0100_LatLon0.15_PT093H.grib2 2026-04-12 04:45 948K
20260412T00Z_MSC_GDPS_AirTemp_IsbL-0150_LatLon0.15_PT093H.grib2 2026-04-12 04:45 961K
20260412T00Z_MSC_GDPS_AirTemp_IsbL-0175_LatLon0.15_PT093H.grib2 2026-04-12 04:45 952K
20260412T00Z_MSC_GDPS_AirTemp_IsbL-0200_LatLon0.15_PT093H.grib2 2026-04-12 04:45 963K
20260412T00Z_MSC_GDPS_AirTemp_IsbL-0225_LatLon0.15_PT093H.grib2 2026-04-12 04:45 968K
20260412T00Z_MSC_GDPS_AirTemp_IsbL-0250_LatLon0.15_PT093H.grib2 2026-04-12 04:45 1.0M
20260412T00Z_MSC_GDPS_AirTemp_IsbL-0275_LatLon0.15_PT093H.grib2 2026-04-12 04:45 937K
20260412T00Z_MSC_GDPS_AirTemp_IsbL-0300_LatLon0.15_PT093H.grib2 2026-04-12 04:45 948K
20260412T00Z_MSC_GDPS_AirTemp_IsbL-0350_LatLon0.15_PT093H.grib2 2026-04-12 04:45 928K
20260412T00Z_MSC_GDPS_AirTemp_IsbL-0400_LatLon0.15_PT093H.grib2 2026-04-12 04:45 941K
20260412T00Z_MSC_GDPS_AirTemp_IsbL-0450_LatLon0.15_PT093H.grib2 2026-04-12 04:45 960K
20260412T00Z_MSC_GDPS_AirTemp_IsbL-0500_LatLon0.15_PT093H.grib2 2026-04-12 04:45 1.0M
20260412T00Z_MSC_GDPS_AirTemp_IsbL-0550_LatLon0.15_PT093H.grib2 2026-04-12 04:45 797K
20260412T00Z_MSC_GDPS_AirTemp_IsbL-0600_LatLon0.15_PT093H.grib2 2026-04-12 04:45 888K
20260412T00Z_MSC_GDPS_AirTemp_IsbL-0650_LatLon0.15_PT093H.grib2 2026-04-12 04:45 917K
20260412T00Z_MSC_GDPS_AirTemp_IsbL-0700_LatLon0.15_PT093H.grib2 2026-04-12 04:45 951K
20260412T00Z_MSC_GDPS_AirTemp_IsbL-0750_LatLon0.15_PT093H.grib2 2026-04-12 04:45 1.0M
20260412T00Z_MSC_GDPS_AirTemp_IsbL-0800_LatLon0.15_PT093H.grib2 2026-04-12 04:45 1.1M
20260412T00Z_MSC_GDPS_AirTemp_IsbL-0850_LatLon0.15_PT093H.grib2 2026-04-12 04:45 1.1M
20260412T00Z_MSC_GDPS_AirTemp_IsbL-0875_LatLon0.15_PT093H.grib2 2026-04-12 04:45 1.1M
20260412T00Z_MSC_GDPS_AirTemp_IsbL-0900_LatLon0.15_PT093H.grib2 2026-04-12 04:45 1.1M
20260412T00Z_MSC_GDPS_AirTemp_IsbL-0925_LatLon0.15_PT093H.grib2 2026-04-12 04:45 1.1M
20260412T00Z_MSC_GDPS_AirTemp_IsbL-0950_LatLon0.15_PT093H.grib2 2026-04-12 04:45 1.1M
20260412T00Z_MSC_GDPS_AirTemp_IsbL-0970_LatLon0.15_PT093H.grib2 2026-04-12 04:45 1.2M
20260412T00Z_MSC_GDPS_AirTemp_IsbL-0985_LatLon0.15_PT093H.grib2 2026-04-12 04:45 1.1M
20260412T00Z_MSC_GDPS_AirTemp_IsbL-1000_LatLon0.15_PT093H.grib2 2026-04-12 04:45 1.1M
20260412T00Z_MSC_GDPS_AirTemp_IsbL-1015_LatLon0.15_PT093H.grib2 2026-04-12 04:45 1.1M
20260412T00Z_MSC_GDPS_Albedo_Sfc_LatLon0.15_PT093H.grib2 2026-04-12 04:45 244K
20260412T00Z_MSC_GDPS_CAPE_Sfc_LatLon0.15_PT093H.grib2 2026-04-12 04:45 3.8M
20260412T00Z_MSC_GDPS_CIN_Sfc_LatLon0.15_PT093H.grib2 2026-04-12 04:45 2.8M
20260412T00Z_MSC_GDPS_CloudWater_EAtm_LatLon0.15_PT093H.grib2 2026-04-12 04:45 526K
20260412T00Z_MSC_GDPS_ConvectivePrecip-Accum_Sfc_LatLon0.15_PT093H.grib2 2026-04-12 04:45 3.1M
20260412T00Z_MSC_GDPS_DewPointDepression_AGL-2m_LatLon0.15_PT093H.grib2 2026-04-12 04:45 750K
20260412T00Z_MSC_GDPS_DewPointDepression_IsbL-0010_LatLon0.15_PT093H.grib2 2026-04-12 04:45 20K
20260412T00Z_MSC_GDPS_DewPointDepression_IsbL-0020_LatLon0.15_PT093H.grib2 2026-04-12 04:45 48K
20260412T00Z_MSC_GDPS_DewPointDepression_IsbL-0030_LatLon0.15_PT093H.grib2 2026-04-12 04:45 69K
20260412T00Z_MSC_GDPS_DewPointDepression_IsbL-0050_LatLon0.15_PT093H.grib2 2026-04-12 04:45 355K
20260412T00Z_MSC_GDPS_DewPointDepression_IsbL-0100_LatLon0.15_PT093H.grib2 2026-04-12 04:45 378K
20260412T00Z_MSC_GDPS_DewPointDepression_IsbL-0150_LatLon0.15_PT093H.grib2 2026-04-12 04:45 453K
20260412T00Z_MSC_GDPS_DewPointDepression_IsbL-0175_LatLon0.15_PT093H.grib2 2026-04-12 04:45 539K
20260412T00Z_MSC_GDPS_DewPointDepression_IsbL-0200_LatLon0.15_PT093H.grib2 2026-04-12 04:45 630K
20260412T00Z_MSC_GDPS_DewPointDepression_IsbL-0225_LatLon0.15_PT093H.grib2 2026-04-12 04:45 754K
20260412T00Z_MSC_GDPS_DewPointDepression_IsbL-0250_LatLon0.15_PT093H.grib2 2026-04-12 04:45 863K
20260412T00Z_MSC_GDPS_DewPointDepression_IsbL-0275_LatLon0.15_PT093H.grib2 2026-04-12 04:45 889K
20260412T00Z_MSC_GDPS_DewPointDepression_IsbL-0300_LatLon0.15_PT093H.grib2 2026-04-12 04:45 933K
20260412T00Z_MSC_GDPS_DewPointDepression_IsbL-0350_LatLon0.15_PT093H.grib2 2026-04-12 04:45 967K
20260412T00Z_MSC_GDPS_DewPointDepression_IsbL-0400_LatLon0.15_PT093H.grib2 2026-04-12 04:45 1.0M
20260412T00Z_MSC_GDPS_DewPointDepression_IsbL-0450_LatLon0.15_PT093H.grib2 2026-04-12 04:45 1.0M
20260412T00Z_MSC_GDPS_DewPointDepression_IsbL-0500_LatLon0.15_PT093H.grib2 2026-04-12 04:45 1.0M
20260412T00Z_MSC_GDPS_DewPointDepression_IsbL-0550_LatLon0.15_PT093H.grib2 2026-04-12 04:45 1.0M
20260412T00Z_MSC_GDPS_DewPointDepression_IsbL-0600_LatLon0.15_PT093H.grib2 2026-04-12 04:45 1.1M
20260412T00Z_MSC_GDPS_DewPointDepression_IsbL-0650_LatLon0.15_PT093H.grib2 2026-04-12 04:45 1.1M
20260412T00Z_MSC_GDPS_DewPointDepression_IsbL-0700_LatLon0.15_PT093H.grib2 2026-04-12 04:45 1.1M
20260412T00Z_MSC_GDPS_DewPointDepression_IsbL-0750_LatLon0.15_PT093H.grib2 2026-04-12 04:45 1.1M
20260412T00Z_MSC_GDPS_DewPointDepression_IsbL-0800_LatLon0.15_PT093H.grib2 2026-04-12 04:45 1.2M
20260412T00Z_MSC_GDPS_DewPointDepression_IsbL-0850_LatLon0.15_PT093H.grib2 2026-04-12 04:45 1.1M
20260412T00Z_MSC_GDPS_DewPointDepression_IsbL-0875_LatLon0.15_PT093H.grib2 2026-04-12 04:45 1.1M
20260412T00Z_MSC_GDPS_DewPointDepression_IsbL-0900_LatLon0.15_PT093H.grib2 2026-04-12 04:45 1.0M
20260412T00Z_MSC_GDPS_DewPointDepression_IsbL-0925_LatLon0.15_PT093H.grib2 2026-04-12 04:45 1.0M
20260412T00Z_MSC_GDPS_DewPointDepression_IsbL-0950_LatLon0.15_PT093H.grib2 2026-04-12 04:45 1.0M
20260412T00Z_MSC_GDPS_DewPointDepression_IsbL-0970_LatLon0.15_PT093H.grib2 2026-04-12 04:45 1.0M
20260412T00Z_MSC_GDPS_DewPointDepression_IsbL-0985_LatLon0.15_PT093H.grib2 2026-04-12 04:45 1.0M
20260412T00Z_MSC_GDPS_DewPointDepression_IsbL-1000_LatLon0.15_PT093H.grib2 2026-04-12 04:45 972K
20260412T00Z_MSC_GDPS_DewPointDepression_IsbL-1015_LatLon0.15_PT093H.grib2 2026-04-12 04:45 914K
20260412T00Z_MSC_GDPS_DewPoint_AGL-2m_LatLon0.15_PT093H.grib2 2026-04-12 04:45 613K
20260412T00Z_MSC_GDPS_DownwardLongwaveRadiationFlux-Accum_Sfc_LatLon0.15_PT093H.grib2 2026-04-12 04:45 709K
20260412T00Z_MSC_GDPS_DownwardShortwaveRadiationFlux-Accum_NTAtm_LatLon0.15_PT093H.grib2 2026-04-12 04:45 270K
20260412T00Z_MSC_GDPS_DownwardShortwaveRadiationFlux-Accum_Sfc_LatLon0.15_PT093H.grib2 2026-04-12 04:45 943K
20260412T00Z_MSC_GDPS_FreezingRain-Accum1h_Sfc_LatLon0.15_PT093H.grib2 2026-04-12 04:45 38K
20260412T00Z_MSC_GDPS_FreezingRain-Accum3h_Sfc_LatLon0.15_PT093H.grib2 2026-04-12 04:45 49K
20260412T00Z_MSC_GDPS_FreezingRain-Accum_Sfc_LatLon0.15_PT093H.grib2 2026-04-12 04:45 220K
20260412T00Z_MSC_GDPS_GeopotentialHeight_IsbL-0001_LatLon0.15_PT093H.grib2 2026-04-12 04:45 538K
20260412T00Z_MSC_GDPS_GeopotentialHeight_IsbL-0005_LatLon0.15_PT093H.grib2 2026-04-12 04:45 499K
20260412T00Z_MSC_GDPS_GeopotentialHeight_IsbL-0010_LatLon0.15_PT093H.grib2 2026-04-12 04:45 433K
20260412T00Z_MSC_GDPS_GeopotentialHeight_IsbL-0020_LatLon0.15_PT093H.grib2 2026-04-12 04:45 580K
20260412T00Z_MSC_GDPS_GeopotentialHeight_IsbL-0030_LatLon0.15_PT093H.grib2 2026-04-12 04:45 581K
20260412T00Z_MSC_GDPS_GeopotentialHeight_IsbL-0050_LatLon0.15_PT093H.grib2 2026-04-12 04:45 511K
20260412T00Z_MSC_GDPS_GeopotentialHeight_IsbL-0100_LatLon0.15_PT093H.grib2 2026-04-12 04:45 612K
20260412T00Z_MSC_GDPS_GeopotentialHeight_IsbL-0150_LatLon0.15_PT093H.grib2 2026-04-12 04:45 628K
20260412T00Z_MSC_GDPS_GeopotentialHeight_IsbL-0175_LatLon0.15_PT093H.grib2 2026-04-12 04:45 628K
20260412T00Z_MSC_GDPS_GeopotentialHeight_IsbL-0200_LatLon0.15_PT093H.grib2 2026-04-12 04:45 632K
20260412T00Z_MSC_GDPS_GeopotentialHeight_IsbL-0225_LatLon0.15_PT093H.grib2 2026-04-12 04:45 629K
20260412T00Z_MSC_GDPS_GeopotentialHeight_IsbL-0250_LatLon0.15_PT093H.grib2 2026-04-12 04:45 635K
20260412T00Z_MSC_GDPS_GeopotentialHeight_IsbL-0275_LatLon0.15_PT093H.grib2 2026-04-12 04:45 636K
20260412T00Z_MSC_GDPS_GeopotentialHeight_IsbL-0300_LatLon0.15_PT093H.grib2 2026-04-12 04:45 634K
20260412T00Z_MSC_GDPS_GeopotentialHeight_IsbL-0350_LatLon0.15_PT093H.grib2 2026-04-12 04:45 622K
20260412T00Z_MSC_GDPS_GeopotentialHeight_IsbL-0400_LatLon0.15_PT093H.grib2 2026-04-12 04:45 615K
20260412T00Z_MSC_GDPS_GeopotentialHeight_IsbL-0450_LatLon0.15_PT093H.grib2 2026-04-12 04:45 537K
20260412T00Z_MSC_GDPS_GeopotentialHeight_IsbL-0500_LatLon0.15_PT093H.grib2 2026-04-12 04:45 525K
20260412T00Z_MSC_GDPS_GeopotentialHeight_IsbL-0550_LatLon0.15_PT093H.grib2 2026-04-12 04:45 687K
20260412T00Z_MSC_GDPS_GeopotentialHeight_IsbL-0600_LatLon0.15_PT093H.grib2 2026-04-12 04:45 679K
20260412T00Z_MSC_GDPS_GeopotentialHeight_IsbL-0650_LatLon0.15_PT093H.grib2 2026-04-12 04:45 679K
20260412T00Z_MSC_GDPS_GeopotentialHeight_IsbL-0700_LatLon0.15_PT093H.grib2 2026-04-12 04:45 681K
20260412T00Z_MSC_GDPS_GeopotentialHeight_IsbL-0750_LatLon0.15_PT093H.grib2 2026-04-12 04:45 683K
20260412T00Z_MSC_GDPS_GeopotentialHeight_IsbL-0800_LatLon0.15_PT093H.grib2 2026-04-12 04:45 698K
20260412T00Z_MSC_GDPS_GeopotentialHeight_IsbL-0850_LatLon0.15_PT093H.grib2 2026-04-12 04:45 706K
20260412T00Z_MSC_GDPS_GeopotentialHeight_IsbL-0875_LatLon0.15_PT093H.grib2 2026-04-12 04:45 712K
20260412T00Z_MSC_GDPS_GeopotentialHeight_IsbL-0900_LatLon0.15_PT093H.grib2 2026-04-12 04:45 722K
20260412T00Z_MSC_GDPS_GeopotentialHeight_IsbL-0925_LatLon0.15_PT093H.grib2 2026-04-12 04:45 730K
20260412T00Z_MSC_GDPS_GeopotentialHeight_IsbL-0950_LatLon0.15_PT093H.grib2 2026-04-12 04:45 737K
20260412T00Z_MSC_GDPS_GeopotentialHeight_IsbL-0970_LatLon0.15_PT093H.grib2 2026-04-12 04:45 750K
20260412T00Z_MSC_GDPS_GeopotentialHeight_IsbL-0985_LatLon0.15_PT093H.grib2 2026-04-12 04:45 766K
20260412T00Z_MSC_GDPS_GeopotentialHeight_IsbL-1000_LatLon0.15_PT093H.grib2 2026-04-12 04:45 786K
20260412T00Z_MSC_GDPS_GeopotentialHeight_IsbL-1015_LatLon0.15_PT093H.grib2 2026-04-12 04:45 807K
20260412T00Z_MSC_GDPS_Humidex_Sfc_LatLon0.15_PT093H.grib2 2026-04-12 04:45 5.3M
20260412T00Z_MSC_GDPS_IcePellets-Accum1h_Sfc_LatLon0.15_PT093H.grib2 2026-04-12 04:45 12K
20260412T00Z_MSC_GDPS_IcePellets-Accum3h_Sfc_LatLon0.15_PT093H.grib2 2026-04-12 04:45 17K
20260412T00Z_MSC_GDPS_IcePellets-Accum_Sfc_LatLon0.15_PT093H.grib2 2026-04-12 04:45 106K
20260412T00Z_MSC_GDPS_KIndex_Sfc_LatLon0.15_PT093H.grib2 2026-04-12 04:45 6.5M
20260412T00Z_MSC_GDPS_LatentHeatNetFlux_Sfc_LatLon0.15_PT093H.grib2 2026-04-12 04:45 486K
20260412T00Z_MSC_GDPS_LiftedIndex-MU-VT_IsbL-0500_LatLon0.15_PT093H.grib2 2026-04-12 04:45 5.4M
20260412T00Z_MSC_GDPS_NetLongwaveRadiationFlux-Accum_Sfc_LatLon0.15_PT093H.grib2 2026-04-12 04:45 947K
20260412T00Z_MSC_GDPS_NetShortwaveRadiationFlux-Accum_Sfc_LatLon0.15_PT093H.grib2 2026-04-12 04:45 936K
20260412T00Z_MSC_GDPS_O3MixingRatio_LatLon0.15_PT093H.grib2 2026-04-12 05:06 2.3M
20260412T00Z_MSC_GDPS_O3_EAtm_LatLon0.15_PT093H.grib2 2026-04-12 05:06 2.1M
20260412T00Z_MSC_GDPS_PlanetaryBoundaryLayerHeight_Sfc_LatLon0.15_PT093H.grib2 2026-04-12 04:45 2.4M
20260412T00Z_MSC_GDPS_Precip-Accum1h_Sfc_LatLon0.15_PT093H.grib2 2026-04-12 04:45 3.2M
20260412T00Z_MSC_GDPS_Precip-Accum3h_Sfc_LatLon0.15_PT093H.grib2 2026-04-12 04:45 3.7M
20260412T00Z_MSC_GDPS_Precip-Accum_Sfc_LatLon0.15_PT093H.grib2 2026-04-12 04:45 4.9M
20260412T00Z_MSC_GDPS_PrecipRate_Sfc_LatLon0.15_PT093H.grib2 2026-04-12 04:45 3.0M
20260412T00Z_MSC_GDPS_PrecipType-Instant_Sfc_LatLon0.15_PT093H.grib2 2026-04-12 04:45 1.5M
20260412T00Z_MSC_GDPS_Pressure_MSL_LatLon0.15_PT093H.grib2 2026-04-12 04:45 838K
20260412T00Z_MSC_GDPS_Pressure_PVU-1.5_LatLon0.15_PT093H.grib2 2026-04-12 04:45 5.8M
20260412T00Z_MSC_GDPS_Pressure_PVU-1_LatLon0.15_PT093H.grib2 2026-04-12 04:45 6.0M
20260412T00Z_MSC_GDPS_Pressure_PVU-2_LatLon0.15_PT093H.grib2 2026-04-12 04:45 5.6M
20260412T00Z_MSC_GDPS_Pressure_Sfc_LatLon0.15_PT093H.grib2 2026-04-12 04:45 1.1M
20260412T00Z_MSC_GDPS_RadiativeTemp_Sfc_LatLon0.15_PT093H.grib2 2026-04-12 04:45 663K
20260412T00Z_MSC_GDPS_Rain-Accum1h_Sfc_LatLon0.15_PT093H.grib2 2026-04-12 04:45 1.6M
20260412T00Z_MSC_GDPS_Rain-Accum3h_Sfc_LatLon0.15_PT093H.grib2 2026-04-12 04:45 1.9M
20260412T00Z_MSC_GDPS_Rain-Accum_Sfc_LatLon0.15_PT093H.grib2 2026-04-12 04:45 3.6M
20260412T00Z_MSC_GDPS_RelativeHumidity_AGL-2m_LatLon0.15_PT093H.grib2 2026-04-12 04:45 1.0M
20260412T00Z_MSC_GDPS_RelativeHumidity_IsbL-0010_LatLon0.15_PT093H.grib2 2026-04-12 04:45 249K
20260412T00Z_MSC_GDPS_RelativeHumidity_IsbL-0020_LatLon0.15_PT093H.grib2 2026-04-12 04:45 375K
20260412T00Z_MSC_GDPS_RelativeHumidity_IsbL-0030_LatLon0.15_PT093H.grib2 2026-04-12 04:45 522K
20260412T00Z_MSC_GDPS_RelativeHumidity_IsbL-0050_LatLon0.15_PT093H.grib2 2026-04-12 04:45 322K
20260412T00Z_MSC_GDPS_RelativeHumidity_IsbL-0100_LatLon0.15_PT093H.grib2 2026-04-12 04:45 496K
20260412T00Z_MSC_GDPS_RelativeHumidity_IsbL-0150_LatLon0.15_PT093H.grib2 2026-04-12 04:45 644K
20260412T00Z_MSC_GDPS_RelativeHumidity_IsbL-0175_LatLon0.15_PT093H.grib2 2026-04-12 04:45 768K
20260412T00Z_MSC_GDPS_RelativeHumidity_IsbL-0200_LatLon0.15_PT093H.grib2 2026-04-12 04:45 684K
20260412T00Z_MSC_GDPS_RelativeHumidity_IsbL-0225_LatLon0.15_PT093H.grib2 2026-04-12 04:45 776K
20260412T00Z_MSC_GDPS_RelativeHumidity_IsbL-0250_LatLon0.15_PT093H.grib2 2026-04-12 04:45 857K
20260412T00Z_MSC_GDPS_RelativeHumidity_IsbL-0275_LatLon0.15_PT093H.grib2 2026-04-12 04:45 881K
20260412T00Z_MSC_GDPS_RelativeHumidity_IsbL-0300_LatLon0.15_PT093H.grib2 2026-04-12 04:45 934K
20260412T00Z_MSC_GDPS_RelativeHumidity_IsbL-0350_LatLon0.15_PT093H.grib2 2026-04-12 04:45 964K
20260412T00Z_MSC_GDPS_RelativeHumidity_IsbL-0400_LatLon0.15_PT093H.grib2 2026-04-12 04:45 1.0M
20260412T00Z_MSC_GDPS_RelativeHumidity_IsbL-0450_LatLon0.15_PT093H.grib2 2026-04-12 04:45 1.0M
20260412T00Z_MSC_GDPS_RelativeHumidity_IsbL-0500_LatLon0.15_PT093H.grib2 2026-04-12 04:45 1.0M
20260412T00Z_MSC_GDPS_RelativeHumidity_IsbL-0550_LatLon0.15_PT093H.grib2 2026-04-12 04:45 1.1M
20260412T00Z_MSC_GDPS_RelativeHumidity_IsbL-0600_LatLon0.15_PT093H.grib2 2026-04-12 04:45 1.0M
20260412T00Z_MSC_GDPS_RelativeHumidity_IsbL-0650_LatLon0.15_PT093H.grib2 2026-04-12 04:45 1.1M
20260412T00Z_MSC_GDPS_RelativeHumidity_IsbL-0700_LatLon0.15_PT093H.grib2 2026-04-12 04:45 1.1M
20260412T00Z_MSC_GDPS_RelativeHumidity_IsbL-0750_LatLon0.15_PT093H.grib2 2026-04-12 04:45 1.2M
20260412T00Z_MSC_GDPS_RelativeHumidity_IsbL-0800_LatLon0.15_PT093H.grib2 2026-04-12 04:45 1.2M
20260412T00Z_MSC_GDPS_RelativeHumidity_IsbL-0850_LatLon0.15_PT093H.grib2 2026-04-12 04:45 1.3M
20260412T00Z_MSC_GDPS_RelativeHumidity_IsbL-0875_LatLon0.15_PT093H.grib2 2026-04-12 04:45 1.2M
20260412T00Z_MSC_GDPS_RelativeHumidity_IsbL-0900_LatLon0.15_PT093H.grib2 2026-04-12 04:45 1.3M
20260412T00Z_MSC_GDPS_RelativeHumidity_IsbL-0925_LatLon0.15_PT093H.grib2 2026-04-12 04:45 1.2M
20260412T00Z_MSC_GDPS_RelativeHumidity_IsbL-0950_LatLon0.15_PT093H.grib2 2026-04-12 04:45 1.2M
20260412T00Z_MSC_GDPS_RelativeHumidity_IsbL-0970_LatLon0.15_PT093H.grib2 2026-04-12 04:45 1.2M
20260412T00Z_MSC_GDPS_RelativeHumidity_IsbL-0985_LatLon0.15_PT093H.grib2 2026-04-12 04:45 1.2M
20260412T00Z_MSC_GDPS_RelativeHumidity_IsbL-1000_LatLon0.15_PT093H.grib2 2026-04-12 04:45 1.1M
20260412T00Z_MSC_GDPS_RelativeHumidity_IsbL-1015_LatLon0.15_PT093H.grib2 2026-04-12 04:45 1.1M
20260412T00Z_MSC_GDPS_RelativeVorticity_IsbL-0200_LatLon0.15_PT093H.grib2 2026-04-12 04:45 1.2M
20260412T00Z_MSC_GDPS_RelativeVorticity_IsbL-0250_LatLon0.15_PT093H.grib2 2026-04-12 04:45 1.3M
20260412T00Z_MSC_GDPS_RelativeVorticity_IsbL-0500_LatLon0.15_PT093H.grib2 2026-04-12 04:45 1.5M
20260412T00Z_MSC_GDPS_RelativeVorticity_IsbL-0700_LatLon0.15_PT093H.grib2 2026-04-12 04:45 1.3M
20260412T00Z_MSC_GDPS_RelativeVorticity_IsbL-0850_LatLon0.15_PT093H.grib2 2026-04-12 04:45 1.6M
20260412T00Z_MSC_GDPS_Runoff-Accum_Sfc_LatLon0.15_PT093H.grib2 2026-04-12 04:45 101K
20260412T00Z_MSC_GDPS_SensibleHeatNetFlux_Sfc_LatLon0.15_PT093H.grib2 2026-04-12 04:45 599K
20260412T00Z_MSC_GDPS_ShowalterIndex_IsbL-0500_LatLon0.15_PT093H.grib2 2026-04-12 04:45 6.2M
20260412T00Z_MSC_GDPS_Snow-Accum1h_Sfc_LatLon0.15_PT093H.grib2 2026-04-12 04:45 1.2M
20260412T00Z_MSC_GDPS_Snow-Accum3h_Sfc_LatLon0.15_PT093H.grib2 2026-04-12 04:45 1.1M
20260412T00Z_MSC_GDPS_Snow-Accum_Sfc_LatLon0.15_PT093H.grib2 2026-04-12 04:45 1.8M
20260412T00Z_MSC_GDPS_SnowDensity_Sfc_LatLon0.15_PT093H.grib2 2026-04-12 04:45 269K
20260412T00Z_MSC_GDPS_SnowDepth_Sfc_LatLon0.15_PT093H.grib2 2026-04-12 04:45 1.8M
20260412T00Z_MSC_GDPS_SoilTemp_DBS-0to10cm_LatLon0.15_PT093H.grib2 2026-04-12 04:45 506K
20260412T00Z_MSC_GDPS_SoilTemp_Sfc_LatLon0.15_PT093H.grib2 2026-04-12 04:45 572K
20260412T00Z_MSC_GDPS_SoilVolumetricIceContent_Sfc_LatLon0.15_PT093H.grib2 2026-04-12 04:45 225K
20260412T00Z_MSC_GDPS_SoilVolumetricWaterContent_DBS-0to10cm_LatLon0.15_PT093H.grib2 2026-04-12 04:45 551K
20260412T00Z_MSC_GDPS_SoilVolumetricWaterContent_DBS-0to1cm_LatLon0.15_PT093H.grib2 2026-04-12 04:45 652K
20260412T00Z_MSC_GDPS_SpecificHumidity_AGL-120m_LatLon0.15_PT093H.grib2 2026-04-12 04:45 1.1M
20260412T00Z_MSC_GDPS_SpecificHumidity_AGL-2m_LatLon0.15_PT093H.grib2 2026-04-12 04:45 1.2M
20260412T00Z_MSC_GDPS_SpecificHumidity_AGL-40m_LatLon0.15_PT093H.grib2 2026-04-12 04:45 1.1M
20260412T00Z_MSC_GDPS_SpecificHumidity_AGL-80m_LatLon0.15_PT093H.grib2 2026-04-12 04:45 1.1M
20260412T00Z_MSC_GDPS_SpecificHumidity_IsbL-0001_LatLon0.15_PT093H.grib2 2026-04-12 04:45 1.2M
20260412T00Z_MSC_GDPS_SpecificHumidity_IsbL-0005_LatLon0.15_PT093H.grib2 2026-04-12 04:45 1.1M
20260412T00Z_MSC_GDPS_SpecificHumidity_IsbL-0010_LatLon0.15_PT093H.grib2 2026-04-12 04:45 1.2M
20260412T00Z_MSC_GDPS_SpecificHumidity_IsbL-0020_LatLon0.15_PT093H.grib2 2026-04-12 04:45 1.3M
20260412T00Z_MSC_GDPS_SpecificHumidity_IsbL-0030_LatLon0.15_PT093H.grib2 2026-04-12 04:45 1.6M
20260412T00Z_MSC_GDPS_SpecificHumidity_IsbL-0050_LatLon0.15_PT093H.grib2 2026-04-12 04:45 1.3M
20260412T00Z_MSC_GDPS_SpecificHumidity_IsbL-0100_LatLon0.15_PT093H.grib2 2026-04-12 04:45 1.3M
20260412T00Z_MSC_GDPS_SpecificHumidity_IsbL-0150_LatLon0.15_PT093H.grib2 2026-04-12 04:45 1.3M
20260412T00Z_MSC_GDPS_SpecificHumidity_IsbL-0175_LatLon0.15_PT093H.grib2 2026-04-12 04:45 1.0M
20260412T00Z_MSC_GDPS_SpecificHumidity_IsbL-0200_LatLon0.15_PT093H.grib2 2026-04-12 04:45 1.1M
20260412T00Z_MSC_GDPS_SpecificHumidity_IsbL-0225_LatLon0.15_PT093H.grib2 2026-04-12 04:45 1.2M
20260412T00Z_MSC_GDPS_SpecificHumidity_IsbL-0250_LatLon0.15_PT093H.grib2 2026-04-12 04:45 1.2M
20260412T00Z_MSC_GDPS_SpecificHumidity_IsbL-0275_LatLon0.15_PT093H.grib2 2026-04-12 04:45 1.1M
20260412T00Z_MSC_GDPS_SpecificHumidity_IsbL-0300_LatLon0.15_PT093H.grib2 2026-04-12 04:45 1.3M
20260412T00Z_MSC_GDPS_SpecificHumidity_IsbL-0350_LatLon0.15_PT093H.grib2 2026-04-12 04:45 1.2M
20260412T00Z_MSC_GDPS_SpecificHumidity_IsbL-0400_LatLon0.15_PT093H.grib2 2026-04-12 04:45 1.1M
20260412T00Z_MSC_GDPS_SpecificHumidity_IsbL-0450_LatLon0.15_PT093H.grib2 2026-04-12 04:45 1.3M
20260412T00Z_MSC_GDPS_SpecificHumidity_IsbL-0500_LatLon0.15_PT093H.grib2 2026-04-12 04:45 1.5M
20260412T00Z_MSC_GDPS_SpecificHumidity_IsbL-0550_LatLon0.15_PT093H.grib2 2026-04-12 04:45 1.3M
20260412T00Z_MSC_GDPS_SpecificHumidity_IsbL-0600_LatLon0.15_PT093H.grib2 2026-04-12 04:45 1.4M
20260412T00Z_MSC_GDPS_SpecificHumidity_IsbL-0650_LatLon0.15_PT093H.grib2 2026-04-12 04:45 1.5M
20260412T00Z_MSC_GDPS_SpecificHumidity_IsbL-0700_LatLon0.15_PT093H.grib2 2026-04-12 04:45 1.6M
20260412T00Z_MSC_GDPS_SpecificHumidity_IsbL-0750_LatLon0.15_PT093H.grib2 2026-04-12 04:45 1.7M
20260412T00Z_MSC_GDPS_SpecificHumidity_IsbL-0800_LatLon0.15_PT093H.grib2 2026-04-12 04:45 1.8M
20260412T00Z_MSC_GDPS_SpecificHumidity_IsbL-0850_LatLon0.15_PT093H.grib2 2026-04-12 04:45 1.9M
20260412T00Z_MSC_GDPS_SpecificHumidity_IsbL-0875_LatLon0.15_PT093H.grib2 2026-04-12 04:45 1.9M
20260412T00Z_MSC_GDPS_SpecificHumidity_IsbL-0900_LatLon0.15_PT093H.grib2 2026-04-12 04:45 1.6M
20260412T00Z_MSC_GDPS_SpecificHumidity_IsbL-0925_LatLon0.15_PT093H.grib2 2026-04-12 04:45 1.6M
20260412T00Z_MSC_GDPS_SpecificHumidity_IsbL-0950_LatLon0.15_PT093H.grib2 2026-04-12 04:45 1.5M
20260412T00Z_MSC_GDPS_SpecificHumidity_IsbL-0970_LatLon0.15_PT093H.grib2 2026-04-12 04:45 1.5M
20260412T00Z_MSC_GDPS_SpecificHumidity_IsbL-0985_LatLon0.15_PT093H.grib2 2026-04-12 04:45 1.5M
20260412T00Z_MSC_GDPS_SpecificHumidity_IsbL-1000_LatLon0.15_PT093H.grib2 2026-04-12 04:45 1.5M
20260412T00Z_MSC_GDPS_SpecificHumidity_IsbL-1015_LatLon0.15_PT093H.grib2 2026-04-12 04:45 1.4M
20260412T00Z_MSC_GDPS_SpecificHumidity_Sfc_LatLon0.15_PT093H.grib2 2026-04-12 04:45 650K
20260412T00Z_MSC_GDPS_Thickness_IsbL-0850to0700_LatLon0.15_PT093H.grib2 2026-04-12 04:45 464K
20260412T00Z_MSC_GDPS_Thickness_IsbL-1000to0500_LatLon0.15_PT093H.grib2 2026-04-12 04:45 369K
20260412T00Z_MSC_GDPS_Thickness_IsbL-1000to0850_LatLon0.15_PT093H.grib2 2026-04-12 04:45 489K
20260412T00Z_MSC_GDPS_TotalCloudCover_Sfc_LatLon0.15_PT093H.grib2 2026-04-12 04:45 824K
20260412T00Z_MSC_GDPS_TotalTotalsIndex_Sfc_LatLon0.15_PT093H.grib2 2026-04-12 04:45 6.2M
20260412T00Z_MSC_GDPS_UVIndex-ClearSky_Sfc_LatLon0.15_PT093H.grib2 2026-04-12 05:06 1.0M
20260412T00Z_MSC_GDPS_UVIndex_Sfc_LatLon0.15_PT093H.grib2 2026-04-12 05:06 1.5M
20260412T00Z_MSC_GDPS_UpwardLongwaveRadiationFlux_NTAtm_LatLon0.15_PT093H.grib2 2026-04-12 04:45 829K
20260412T00Z_MSC_GDPS_VerticalVelocity_IsbL-0200_LatLon0.15_PT093H.grib2 2026-04-12 04:45 1.1M
20260412T00Z_MSC_GDPS_VerticalVelocity_IsbL-0250_LatLon0.15_PT093H.grib2 2026-04-12 04:45 1.0M
20260412T00Z_MSC_GDPS_VerticalVelocity_IsbL-0500_LatLon0.15_PT093H.grib2 2026-04-12 04:45 1.0M
20260412T00Z_MSC_GDPS_VerticalVelocity_IsbL-0600_LatLon0.15_PT093H.grib2 2026-04-12 04:45 1.1M
20260412T00Z_MSC_GDPS_VerticalVelocity_IsbL-0700_LatLon0.15_PT093H.grib2 2026-04-12 04:45 1.1M
20260412T00Z_MSC_GDPS_VerticalVelocity_IsbL-0850_LatLon0.15_PT093H.grib2 2026-04-12 04:45 1.6M
20260412T00Z_MSC_GDPS_WindChill_Sfc_LatLon0.15_PT093H.grib2 2026-04-12 04:45 5.4M
20260412T00Z_MSC_GDPS_WindDir_AGL-10m_LatLon0.15_PT093H.grib2 2026-04-12 04:45 1.4M
20260412T00Z_MSC_GDPS_WindDir_AGL-120m_LatLon0.15_PT093H.grib2 2026-04-12 04:45 1.4M
20260412T00Z_MSC_GDPS_WindDir_AGL-40m_LatLon0.15_PT093H.grib2 2026-04-12 04:45 1.4M
20260412T00Z_MSC_GDPS_WindDir_AGL-80m_LatLon0.15_PT093H.grib2 2026-04-12 04:45 1.4M
20260412T00Z_MSC_GDPS_WindDir_IsbL-0001_LatLon0.15_PT093H.grib2 2026-04-12 04:45 632K
20260412T00Z_MSC_GDPS_WindDir_IsbL-0005_LatLon0.15_PT093H.grib2 2026-04-12 04:45 804K
20260412T00Z_MSC_GDPS_WindDir_IsbL-0010_LatLon0.15_PT093H.grib2 2026-04-12 04:45 850K
20260412T00Z_MSC_GDPS_WindDir_IsbL-0020_LatLon0.15_PT093H.grib2 2026-04-12 04:45 916K
20260412T00Z_MSC_GDPS_WindDir_IsbL-0030_LatLon0.15_PT093H.grib2 2026-04-12 04:45 884K
20260412T00Z_MSC_GDPS_WindDir_IsbL-0050_LatLon0.15_PT093H.grib2 2026-04-12 04:45 944K
20260412T00Z_MSC_GDPS_WindDir_IsbL-0100_LatLon0.15_PT093H.grib2 2026-04-12 04:45 1.0M
20260412T00Z_MSC_GDPS_WindDir_IsbL-0150_LatLon0.15_PT093H.grib2 2026-04-12 04:45 1.0M
20260412T00Z_MSC_GDPS_WindDir_IsbL-0175_LatLon0.15_PT093H.grib2 2026-04-12 04:45 1.0M
20260412T00Z_MSC_GDPS_WindDir_IsbL-0200_LatLon0.15_PT093H.grib2 2026-04-12 04:45 1.1M
20260412T00Z_MSC_GDPS_WindDir_IsbL-0225_LatLon0.15_PT093H.grib2 2026-04-12 04:45 1.1M
20260412T00Z_MSC_GDPS_WindDir_IsbL-0250_LatLon0.15_PT093H.grib2 2026-04-12 04:45 1.1M
20260412T00Z_MSC_GDPS_WindDir_IsbL-0275_LatLon0.15_PT093H.grib2 2026-04-12 04:45 1.2M
20260412T00Z_MSC_GDPS_WindDir_IsbL-0300_LatLon0.15_PT093H.grib2 2026-04-12 04:45 1.2M
20260412T00Z_MSC_GDPS_WindDir_IsbL-0350_LatLon0.15_PT093H.grib2 2026-04-12 04:45 1.2M
20260412T00Z_MSC_GDPS_WindDir_IsbL-0400_LatLon0.15_PT093H.grib2 2026-04-12 04:45 1.3M
20260412T00Z_MSC_GDPS_WindDir_IsbL-0450_LatLon0.15_PT093H.grib2 2026-04-12 04:45 1.3M
20260412T00Z_MSC_GDPS_WindDir_IsbL-0500_LatLon0.15_PT093H.grib2 2026-04-12 04:45 1.3M
20260412T00Z_MSC_GDPS_WindDir_IsbL-0550_LatLon0.15_PT093H.grib2 2026-04-12 04:45 1.4M
20260412T00Z_MSC_GDPS_WindDir_IsbL-0600_LatLon0.15_PT093H.grib2 2026-04-12 04:45 1.5M
20260412T00Z_MSC_GDPS_WindDir_IsbL-0650_LatLon0.15_PT093H.grib2 2026-04-12 04:45 1.5M
20260412T00Z_MSC_GDPS_WindDir_IsbL-0700_LatLon0.15_PT093H.grib2 2026-04-12 04:45 1.6M
20260412T00Z_MSC_GDPS_WindDir_IsbL-0750_LatLon0.15_PT093H.grib2 2026-04-12 04:45 1.7M
20260412T00Z_MSC_GDPS_WindDir_IsbL-0800_LatLon0.15_PT093H.grib2 2026-04-12 04:45 1.8M
20260412T00Z_MSC_GDPS_WindDir_IsbL-0850_LatLon0.15_PT093H.grib2 2026-04-12 04:45 1.9M
20260412T00Z_MSC_GDPS_WindDir_IsbL-0875_LatLon0.15_PT093H.grib2 2026-04-12 04:45 2.0M
20260412T00Z_MSC_GDPS_WindDir_IsbL-0900_LatLon0.15_PT093H.grib2 2026-04-12 04:45 2.0M
20260412T00Z_MSC_GDPS_WindDir_IsbL-0925_LatLon0.15_PT093H.grib2 2026-04-12 04:45 2.0M
20260412T00Z_MSC_GDPS_WindDir_IsbL-0950_LatLon0.15_PT093H.grib2 2026-04-12 04:45 2.0M
20260412T00Z_MSC_GDPS_WindDir_IsbL-0970_LatLon0.15_PT093H.grib2 2026-04-12 04:45 2.0M
20260412T00Z_MSC_GDPS_WindDir_IsbL-0985_LatLon0.15_PT093H.grib2 2026-04-12 04:45 2.1M
20260412T00Z_MSC_GDPS_WindDir_IsbL-1000_LatLon0.15_PT093H.grib2 2026-04-12 04:45 2.1M
20260412T00Z_MSC_GDPS_WindDir_IsbL-1015_LatLon0.15_PT093H.grib2 2026-04-12 04:45 2.1M
20260412T00Z_MSC_GDPS_WindGust-Max_AGL-10m_LatLon0.15_PT093H.grib2 2026-04-12 04:45 2.2M
20260412T00Z_MSC_GDPS_WindGust-Min_AGL-10m_LatLon0.15_PT093H.grib2 2026-04-12 04:45 2.2M
20260412T00Z_MSC_GDPS_WindGust_AGL-10m_LatLon0.15_PT093H.grib2 2026-04-12 04:45 2.2M
20260412T00Z_MSC_GDPS_WindSpeed_AGL-10m_LatLon0.15_PT093H.grib2 2026-04-12 04:45 1.1M
20260412T00Z_MSC_GDPS_WindSpeed_AGL-120m_LatLon0.15_PT093H.grib2 2026-04-12 04:45 1.3M
20260412T00Z_MSC_GDPS_WindSpeed_AGL-40m_LatLon0.15_PT093H.grib2 2026-04-12 04:45 1.2M
20260412T00Z_MSC_GDPS_WindSpeed_AGL-80m_LatLon0.15_PT093H.grib2 2026-04-12 04:45 1.3M
20260412T00Z_MSC_GDPS_WindSpeed_IsbL-0001_LatLon0.15_PT093H.grib2 2026-04-12 04:45 636K
20260412T00Z_MSC_GDPS_WindSpeed_IsbL-0005_LatLon0.15_PT093H.grib2 2026-04-12 04:45 684K
20260412T00Z_MSC_GDPS_WindSpeed_IsbL-0010_LatLon0.15_PT093H.grib2 2026-04-12 04:45 623K
20260412T00Z_MSC_GDPS_WindSpeed_IsbL-0020_LatLon0.15_PT093H.grib2 2026-04-12 04:45 670K
20260412T00Z_MSC_GDPS_WindSpeed_IsbL-0030_LatLon0.15_PT093H.grib2 2026-04-12 04:45 852K
20260412T00Z_MSC_GDPS_WindSpeed_IsbL-0050_LatLon0.15_PT093H.grib2 2026-04-12 04:45 909K
20260412T00Z_MSC_GDPS_WindSpeed_IsbL-0100_LatLon0.15_PT093H.grib2 2026-04-12 04:45 1.1M
20260412T00Z_MSC_GDPS_WindSpeed_IsbL-0150_LatLon0.15_PT093H.grib2 2026-04-12 04:45 1.0M
20260412T00Z_MSC_GDPS_WindSpeed_IsbL-0175_LatLon0.15_PT093H.grib2 2026-04-12 04:45 1.0M
20260412T00Z_MSC_GDPS_WindSpeed_IsbL-0200_LatLon0.15_PT093H.grib2 2026-04-12 04:45 1.0M
20260412T00Z_MSC_GDPS_WindSpeed_IsbL-0225_LatLon0.15_PT093H.grib2 2026-04-12 04:45 1.1M
20260412T00Z_MSC_GDPS_WindSpeed_IsbL-0250_LatLon0.15_PT093H.grib2 2026-04-12 04:45 1.1M
20260412T00Z_MSC_GDPS_WindSpeed_IsbL-0275_LatLon0.15_PT093H.grib2 2026-04-12 04:45 1.1M
20260412T00Z_MSC_GDPS_WindSpeed_IsbL-0300_LatLon0.15_PT093H.grib2 2026-04-12 04:45 1.1M
20260412T00Z_MSC_GDPS_WindSpeed_IsbL-0350_LatLon0.15_PT093H.grib2 2026-04-12 04:45 1.1M
20260412T00Z_MSC_GDPS_WindSpeed_IsbL-0400_LatLon0.15_PT093H.grib2 2026-04-12 04:45 1.1M
20260412T00Z_MSC_GDPS_WindSpeed_IsbL-0450_LatLon0.15_PT093H.grib2 2026-04-12 04:45 1.1M
20260412T00Z_MSC_GDPS_WindSpeed_IsbL-0500_LatLon0.15_PT093H.grib2 2026-04-12 04:45 1.1M
20260412T00Z_MSC_GDPS_WindSpeed_IsbL-0550_LatLon0.15_PT093H.grib2 2026-04-12 04:45 1.1M
20260412T00Z_MSC_GDPS_WindSpeed_IsbL-0600_LatLon0.15_PT093H.grib2 2026-04-12 04:45 1.4M
20260412T00Z_MSC_GDPS_WindSpeed_IsbL-0650_LatLon0.15_PT093H.grib2 2026-04-12 04:45 1.4M
20260412T00Z_MSC_GDPS_WindSpeed_IsbL-0700_LatLon0.15_PT093H.grib2 2026-04-12 04:45 1.5M
20260412T00Z_MSC_GDPS_WindSpeed_IsbL-0750_LatLon0.15_PT093H.grib2 2026-04-12 04:45 1.5M
20260412T00Z_MSC_GDPS_WindSpeed_IsbL-0800_LatLon0.15_PT093H.grib2 2026-04-12 04:45 1.6M
20260412T00Z_MSC_GDPS_WindSpeed_IsbL-0850_LatLon0.15_PT093H.grib2 2026-04-12 04:45 1.7M
20260412T00Z_MSC_GDPS_WindSpeed_IsbL-0875_LatLon0.15_PT093H.grib2 2026-04-12 04:45 1.8M
20260412T00Z_MSC_GDPS_WindSpeed_IsbL-0900_LatLon0.15_PT093H.grib2 2026-04-12 04:45 1.8M
20260412T00Z_MSC_GDPS_WindSpeed_IsbL-0925_LatLon0.15_PT093H.grib2 2026-04-12 04:45 1.9M
20260412T00Z_MSC_GDPS_WindSpeed_IsbL-0950_LatLon0.15_PT093H.grib2 2026-04-12 04:45 1.9M
20260412T00Z_MSC_GDPS_WindSpeed_IsbL-0970_LatLon0.15_PT093H.grib2 2026-04-12 04:45 1.9M
20260412T00Z_MSC_GDPS_WindSpeed_IsbL-0985_LatLon0.15_PT093H.grib2 2026-04-12 04:45 1.9M
20260412T00Z_MSC_GDPS_WindSpeed_IsbL-1000_LatLon0.15_PT093H.grib2 2026-04-12 04:45 1.8M
20260412T00Z_MSC_GDPS_WindSpeed_IsbL-1015_LatLon0.15_PT093H.grib2 2026-04-12 04:45 1.8M
20260412T00Z_MSC_GDPS_WindU_AGL-10m_LatLon0.15_PT093H.grib2 2026-04-12 04:45 1.3M
20260412T00Z_MSC_GDPS_WindU_AGL-120m_LatLon0.15_PT093H.grib2 2026-04-12 04:45 1.0M
20260412T00Z_MSC_GDPS_WindU_AGL-40m_LatLon0.15_PT093H.grib2 2026-04-12 04:45 1.0M
20260412T00Z_MSC_GDPS_WindU_AGL-80m_LatLon0.15_PT093H.grib2 2026-04-12 04:45 1.0M
20260412T00Z_MSC_GDPS_WindU_IsbL-0001_LatLon0.15_PT093H.grib2 2026-04-12 04:45 495K
20260412T00Z_MSC_GDPS_WindU_IsbL-0005_LatLon0.15_PT093H.grib2 2026-04-12 04:45 682K
20260412T00Z_MSC_GDPS_WindU_IsbL-0010_LatLon0.15_PT093H.grib2 2026-04-12 04:45 696K
20260412T00Z_MSC_GDPS_WindU_IsbL-0020_LatLon0.15_PT093H.grib2 2026-04-12 04:45 735K
20260412T00Z_MSC_GDPS_WindU_IsbL-0030_LatLon0.15_PT093H.grib2 2026-04-12 04:45 732K
20260412T00Z_MSC_GDPS_WindU_IsbL-0050_LatLon0.15_PT093H.grib2 2026-04-12 04:45 700K
20260412T00Z_MSC_GDPS_WindU_IsbL-0100_LatLon0.15_PT093H.grib2 2026-04-12 04:45 925K
20260412T00Z_MSC_GDPS_WindU_IsbL-0150_LatLon0.15_PT093H.grib2 2026-04-12 04:45 1.0M
20260412T00Z_MSC_GDPS_WindU_IsbL-0175_LatLon0.15_PT093H.grib2 2026-04-12 04:45 1.0M
20260412T00Z_MSC_GDPS_WindU_IsbL-0200_LatLon0.15_PT093H.grib2 2026-04-12 04:45 1.0M
20260412T00Z_MSC_GDPS_WindU_IsbL-0225_LatLon0.15_PT093H.grib2 2026-04-12 04:45 848K
20260412T00Z_MSC_GDPS_WindU_IsbL-0250_LatLon0.15_PT093H.grib2 2026-04-12 04:45 852K
20260412T00Z_MSC_GDPS_WindU_IsbL-0275_LatLon0.15_PT093H.grib2 2026-04-12 04:45 882K
20260412T00Z_MSC_GDPS_WindU_IsbL-0300_LatLon0.15_PT093H.grib2 2026-04-12 04:45 873K
20260412T00Z_MSC_GDPS_WindU_IsbL-0350_LatLon0.15_PT093H.grib2 2026-04-12 04:45 889K
20260412T00Z_MSC_GDPS_WindU_IsbL-0400_LatLon0.15_PT093H.grib2 2026-04-12 04:45 1.1M
20260412T00Z_MSC_GDPS_WindU_IsbL-0450_LatLon0.15_PT093H.grib2 2026-04-12 04:45 1.1M
20260412T00Z_MSC_GDPS_WindU_IsbL-0500_LatLon0.15_PT093H.grib2 2026-04-12 04:45 1.1M
20260412T00Z_MSC_GDPS_WindU_IsbL-0550_LatLon0.15_PT093H.grib2 2026-04-12 04:45 1.1M
20260412T00Z_MSC_GDPS_WindU_IsbL-0600_LatLon0.15_PT093H.grib2 2026-04-12 04:45 1.1M
20260412T00Z_MSC_GDPS_WindU_IsbL-0650_LatLon0.15_PT093H.grib2 2026-04-12 04:45 1.2M
20260412T00Z_MSC_GDPS_WindU_IsbL-0700_LatLon0.15_PT093H.grib2 2026-04-12 04:45 1.2M
20260412T00Z_MSC_GDPS_WindU_IsbL-0750_LatLon0.15_PT093H.grib2 2026-04-12 04:45 1.3M
20260412T00Z_MSC_GDPS_WindU_IsbL-0800_LatLon0.15_PT093H.grib2 2026-04-12 04:45 1.3M
20260412T00Z_MSC_GDPS_WindU_IsbL-0850_LatLon0.15_PT093H.grib2 2026-04-12 04:45 1.4M
20260412T00Z_MSC_GDPS_WindU_IsbL-0875_LatLon0.15_PT093H.grib2 2026-04-12 04:45 1.4M
20260412T00Z_MSC_GDPS_WindU_IsbL-0900_LatLon0.15_PT093H.grib2 2026-04-12 04:45 1.5M
20260412T00Z_MSC_GDPS_WindU_IsbL-0925_LatLon0.15_PT093H.grib2 2026-04-12 04:45 1.5M
20260412T00Z_MSC_GDPS_WindU_IsbL-0950_LatLon0.15_PT093H.grib2 2026-04-12 04:45 1.4M
20260412T00Z_MSC_GDPS_WindU_IsbL-0970_LatLon0.15_PT093H.grib2 2026-04-12 04:45 1.4M
20260412T00Z_MSC_GDPS_WindU_IsbL-0985_LatLon0.15_PT093H.grib2 2026-04-12 04:45 1.4M
20260412T00Z_MSC_GDPS_WindU_IsbL-1000_LatLon0.15_PT093H.grib2 2026-04-12 04:45 1.4M
20260412T00Z_MSC_GDPS_WindU_IsbL-1015_LatLon0.15_PT093H.grib2 2026-04-12 04:45 1.4M
20260412T00Z_MSC_GDPS_WindV_AGL-10m_LatLon0.15_PT093H.grib2 2026-04-12 04:45 1.3M
20260412T00Z_MSC_GDPS_WindV_AGL-120m_LatLon0.15_PT093H.grib2 2026-04-12 04:45 1.0M
20260412T00Z_MSC_GDPS_WindV_AGL-40m_LatLon0.15_PT093H.grib2 2026-04-12 04:45 1.0M
20260412T00Z_MSC_GDPS_WindV_AGL-80m_LatLon0.15_PT093H.grib2 2026-04-12 04:45 1.0M
20260412T00Z_MSC_GDPS_WindV_IsbL-0001_LatLon0.15_PT093H.grib2 2026-04-12 04:45 544K
20260412T00Z_MSC_GDPS_WindV_IsbL-0005_LatLon0.15_PT093H.grib2 2026-04-12 04:45 771K
20260412T00Z_MSC_GDPS_WindV_IsbL-0010_LatLon0.15_PT093H.grib2 2026-04-12 04:45 803K
20260412T00Z_MSC_GDPS_WindV_IsbL-0020_LatLon0.15_PT093H.grib2 2026-04-12 04:45 857K
20260412T00Z_MSC_GDPS_WindV_IsbL-0030_LatLon0.15_PT093H.grib2 2026-04-12 04:45 932K
20260412T00Z_MSC_GDPS_WindV_IsbL-0050_LatLon0.15_PT093H.grib2 2026-04-12 04:45 907K
20260412T00Z_MSC_GDPS_WindV_IsbL-0100_LatLon0.15_PT093H.grib2 2026-04-12 04:45 1.1M
20260412T00Z_MSC_GDPS_WindV_IsbL-0150_LatLon0.15_PT093H.grib2 2026-04-12 04:45 1.0M
20260412T00Z_MSC_GDPS_WindV_IsbL-0175_LatLon0.15_PT093H.grib2 2026-04-12 04:45 1.0M
20260412T00Z_MSC_GDPS_WindV_IsbL-0200_LatLon0.15_PT093H.grib2 2026-04-12 04:45 834K
20260412T00Z_MSC_GDPS_WindV_IsbL-0225_LatLon0.15_PT093H.grib2 2026-04-12 04:45 901K
20260412T00Z_MSC_GDPS_WindV_IsbL-0250_LatLon0.15_PT093H.grib2 2026-04-12 04:45 904K
20260412T00Z_MSC_GDPS_WindV_IsbL-0275_LatLon0.15_PT093H.grib2 2026-04-12 04:45 930K
20260412T00Z_MSC_GDPS_WindV_IsbL-0300_LatLon0.15_PT093H.grib2 2026-04-12 04:45 919K
20260412T00Z_MSC_GDPS_WindV_IsbL-0350_LatLon0.15_PT093H.grib2 2026-04-12 04:45 878K
20260412T00Z_MSC_GDPS_WindV_IsbL-0400_LatLon0.15_PT093H.grib2 2026-04-12 04:45 877K
20260412T00Z_MSC_GDPS_WindV_IsbL-0450_LatLon0.15_PT093H.grib2 2026-04-12 04:45 876K
20260412T00Z_MSC_GDPS_WindV_IsbL-0500_LatLon0.15_PT093H.grib2 2026-04-12 04:45 1.1M
20260412T00Z_MSC_GDPS_WindV_IsbL-0550_LatLon0.15_PT093H.grib2 2026-04-12 04:45 1.1M
20260412T00Z_MSC_GDPS_WindV_IsbL-0600_LatLon0.15_PT093H.grib2 2026-04-12 04:45 1.1M
20260412T00Z_MSC_GDPS_WindV_IsbL-0650_LatLon0.15_PT093H.grib2 2026-04-12 04:45 1.2M
20260412T00Z_MSC_GDPS_WindV_IsbL-0700_LatLon0.15_PT093H.grib2 2026-04-12 04:45 1.2M
20260412T00Z_MSC_GDPS_WindV_IsbL-0750_LatLon0.15_PT093H.grib2 2026-04-12 04:45 1.3M
20260412T00Z_MSC_GDPS_WindV_IsbL-0800_LatLon0.15_PT093H.grib2 2026-04-12 04:45 1.3M
20260412T00Z_MSC_GDPS_WindV_IsbL-0850_LatLon0.15_PT093H.grib2 2026-04-12 04:45 1.4M
20260412T00Z_MSC_GDPS_WindV_IsbL-0875_LatLon0.15_PT093H.grib2 2026-04-12 04:45 1.4M
20260412T00Z_MSC_GDPS_WindV_IsbL-0900_LatLon0.15_PT093H.grib2 2026-04-12 04:45 1.5M
20260412T00Z_MSC_GDPS_WindV_IsbL-0925_LatLon0.15_PT093H.grib2 2026-04-12 04:45 1.5M
20260412T00Z_MSC_GDPS_WindV_IsbL-0950_LatLon0.15_PT093H.grib2 2026-04-12 04:45 1.4M
20260412T00Z_MSC_GDPS_WindV_IsbL-0970_LatLon0.15_PT093H.grib2 2026-04-12 04:45 1.4M
20260412T00Z_MSC_GDPS_WindV_IsbL-0985_LatLon0.15_PT093H.grib2 2026-04-12 04:45 1.4M
20260412T00Z_MSC_GDPS_WindV_IsbL-1000_LatLon0.15_PT093H.grib2 2026-04-12 04:45 1.4M
20260412T00Z_MSC_GDPS_WindV_IsbL-1015_LatLon0.15_PT093H.grib2 2026-04-12 04:45 1.4M